Theta_e
302 304 305 308 310 312 311 323 325 324 323 325 326 327 327 327 327 326 324 323 323 325
302 302 304 306 308 311 312 321 324 324 323 323 324 325 325 324 324 325 325 324 322 323
300 301 302 305 307 311 313 314 323 322 322 323 322 323 322 321 323 322 322 320 318 305
298 299 301 303 306 309 314 316 317 321 321 320 320 320 320 320 319 318 306 304 303 298
297 298 299 302 305 309 311 315 314 315 316 318 318 318 318 313 309 304 300 297 296 294
296 296 296 298 301 306 308 312 311 310 305 304 302 300 299 301 299 297 295 295 293 292
294 295 294 295 298 299 300 310 309 306 301 300 298 296 295 293 291 291 290 290 290 289
292 292 292 292 293 293 293 295 295 295 295 296 295 293 292 291 289 288 287 287 286 286
290 289 288 289 289 290 289 289 289 288 288 289 290 291 290 289 286 286 285 284 284 285
287 286 286 286 287 287 288 288 287 287 286 285 287 289 288 286 285 284 284 284 284 283
286 285 285 285 285 286 287 286 287 286 286 285 286 287 287 285 284 283 283 283 282 281
285 285 284 284 285 285 285 285 286 286 286 285 285 287 286 284 282 282 281 282 281 281
284 284 283 284 284 284 285 284 285 285 285 285 284 287 286 285 283 281 280 281 281 282
284 284 283 283 284 284 284 284 283 283 283 283 284 284 285 284 282 281 280 280 281 282
Wind_Speed
11 7 7 10 11 11 13 14 18 18 18 20 19 18 17 14 14 16 14 17 14 11
14 11 9 10 12 10 15 17 16 20 19 18 19 19 18 14 15 14 14 14 14 11
15 13 10 10 12 14 15 14 17 17 17 17 17 18 18 15 15 15 12 10 11 5
12 15 14 12 11 12 11 13 17 16 16 15 17 17 17 16 14 14 10 8 10 9
13 11 14 13 10 11 12 10 13 6 4 10 11 12 16 13 11 13 12 11 12 13
13 11 11 14 13 12 12 12 7 5 5 5 7 7 8 6 11 10 12 13 15 14
13 11 10 12 12 9 11 10 5 7 5 9 7 9 12 13 13 12 14 14 13 14
13 11 10 8 11 7 6 6 8 10 10 6 12 9 12 12 14 15 16 16 16 14
10 10 9 8 8 6 5 4 12 13 9 12 7 25 26 19 13 15 16 14 18 15
8 7 7 7 5 7 4 4 10 16 17 14 12 30 30 25 15 15 14 16 15 14
7 6 6 6 5 6 5 5 3 17 17 18 15 27 33 29 19 17 14 14 13 15
7 6 4 5 4 4 4 8 4 10 14 21 17 31 31 25 17 16 14 12 12 11
5 5 5 6 6 6 5 8 8 9 12 16 18 26 27 21 14 15 11 10 12 15
6 6 6 7 6 6 6 9 11 13 13 14 15 18 24 22 13 12 10 10 9 8
Wind_Direction
280 266 258 275 275 278 305 229 205 204 205 206 202 206 203 204 204 201 204 209 214 213
281 271 275 274 277 275 274 274 215 208 203 205 206 203 200 204 207 204 204 208 206 210
283 282 273 269 263 261 277 288 239 205 202 206 206 204 203 202 205 204 206 201 191 147
287 296 278 268 274 270 265 276 273 207 204 201 203 202 202 206 197 193 162 156 149 131
288 295 293 287 276 281 278 248 255 309 234 198 209 204 210 182 172 159 152 138 127 122
296 301 302 301 297 285 276 270 268 262 170 134 114 103 81 119 129 127 128 130 126 113
306 315 313 309 303 311 326 266 220 207 133 117 111 99 101 105 100 98 99 97 95 99
317 322 316 329 312 319 347 345 89 53 78 77 107 104 110 106 103 103 100 89 92 74
323 329 332 333 334 330 46 33 78 82 51 72 89 107 101 102 98 94 96 100 90 90
333 335 342 340 3 307 74 81 111 103 93 69 89 103 101 96 93 95 94 91 94 94
336 345 360 354 12 328 36 69 104 105 101 106 94 95 98 94 92 88 88 92 103 103
339 344 26 30 18 10 43 78 76 101 122 120 117 111 106 102 100 97 92 97 96 103
357 8 43 43 43 49 48 88 84 91 91 104 107 114 114 117 116 112 109 97 93 97
34 39 37 61 49 70 79 88 88 83 83 87 92 97 100 100 101 110 111 109 109 112